Content
SEND FEEDBACK

Daily
Averages
Monthly
Summary
Malaysia

KUCHING, MALAYSIA


Home > Asia > Malaysia
Elevation: 89 feet     Latitude: 01 29N     Longitude: 110 20E

WEATHER
 
SELECT A DAY
Number of Records: 270,456;   Date Range: 8/9/96 - 8/10/14
 
SHARE

PRINT THIS DATA

[ ← Previous Day ]
WEATHER ALMANAC - FEBRUARY 3, 2013
[ Next Day → ]
[ °C ]   °F
Weather ElementAverageHighLow
Temperature81.5 °F88 °F (5:00 pm)75.2 °F (5:30 am)
Dewpoint76.3 °F78.8 °F (11:30 am)73.4 °F (5:30 am)
Humidity84.3 %100 % (7:00 am)63 % (5:00 pm)
Barometer29.80 in29.86 in (8:30 am)29.71 in (4:30 pm)
Wind Speed3.5 mph8.1 mph (6:30 pm)
Weather ElementAverage
Visibility6.6 mi
Wind DirectionSSW (204.5 °)

Weather ElementTotal
Precipitation---
Cooling Degree Days16.6 (Base 65)
Growing Degree Days31.6 (Base 50)
Averaged from 55 records on February 3, 2013
WEATHER CONDITIONS BREAKOUT
WIND DIRECTION BREAKOUT
WEATHER BY HOUR - FEBRUARY 3, 2013
[ °C ]   °F
Local TimeTemperatureDewpointHumidityBarometerVisibilityWind DirectionWind SpeedGust SpeedPrecipitationEventsConditions
12:30 AM78.8 °F75.2 °F89 %29.83 in6.2 miWest (260°)1.2 mphMostly Cloudy
1:00 AM78.8 °F75.2 °F89 %29.83 in6.2 miSSE (160°)2.3 mphMostly Cloudy
1:30 AM78.8 °F75.2 °F89 %29.80 in6.2 miSouth (190°)2.3 mphMostly Cloudy
2:00 AM78.0 °F75.0 °F88 %29.80 in9.0 miWSW (240°)1.2 mphThunderstormThunderstorm
2:00 AM78.8 °F75.2 °F89 %29.80 in6.2 miWSW (240°)1.2 mphThunderstormThunderstorm
2:30 AM78.8 °F75.2 °F89 %29.80 in6.2 miSouth (180°)2.3 mphThunderstormThunderstorm
3:00 AM77.0 °F75.2 °F94 %29.77 in6.2 miNorth (350°)1.2 mphMostly Cloudy
3:30 AM78.8 °F75.2 °F89 %29.77 in6.2 miSSW (200°)1.2 mphMostly Cloudy
4:00 AM78.8 °F75.2 °F89 %29.77 in6.2 miNorth (360°)3.5 mphMostly Cloudy
4:30 AM78.8 °F75.2 °F89 %29.80 in6.2 miNorth (360°)3.5 mphRain-ThunderstormLight Thunderstorms and Rain
5:00 AM77.0 °F76.0 °F95 %29.81 in7.0 miNorth (10°)3.5 mphRain-ThunderstormThunderstorms and Rain
5:00 AM77.0 °F75.2 °F94 %29.80 in6.2 miNorth (10°)3.5 mphRain-ThunderstormLight Thunderstorms and Rain
5:30 AM75.2 °F73.4 °F94 %29.80 in3.7 miNW (320°)3.5 mphRain-ThunderstormLight Thunderstorms and Rain
6:00 AM75.2 °F73.4 °F94 %29.80 in5.0 miNorth (10°)3.5 mphRain-ThunderstormLight Thunderstorms and Rain
6:30 AM75.2 °F73.4 °F94 %29.83 in5.0 miNorth (10°)2.3 mphRain-ThunderstormLight Thunderstorms and Rain
7:00 AM75.2 °F75.2 °F100 %29.83 in3.7 miSouth (170°)1.2 mphRainLight Rain
7:30 AM77.0 °F75.2 °F94 %29.83 in6.2 miSouth (180°)1.2 mphMostly Cloudy
8:00 AM76.0 °F75.0 °F94 %29.85 in7.0 miSSW (210°)3.5 mphRainLight Rain
8:00 AM77.0 °F75.2 °F94 %29.83 in6.2 miSSW (210°)3.5 mphMostly Cloudy
8:30 AM77.0 °F75.2 °F94 %29.86 in6.2 miSSW (210°)2.3 mphMostly Cloudy
9:00 AM78.8 °F77.0 °F94 %29.86 in6.2 miSW (220°)3.5 mphMostly Cloudy
9:30 AM80.6 °F77.0 °F89 %29.86 in6.2 miWNW (300°)1.2 mphMostly Cloudy
10:00 AM80.6 °F77.0 °F89 %29.86 in6.2 miSE (140°)1.2 mphMostly Cloudy
10:30 AM82.4 °F77.0 °F84 %29.83 in6.2 miEast (100°)2.3 mphMostly Cloudy
11:00 AM83.0 °F77.0 °F77 %29.85 in9.0 miEast (90°)2.3 mphPartly Cloudy
11:00 AM82.4 °F77.0 °F84 %29.83 in6.2 miEast (90°)2.3 mphMostly Cloudy
11:30 AM86.0 °F78.8 °F79 %29.83 in6.2 miESE (110°)2.3 mphMostly Cloudy
12:00 PM86.0 °F77.0 °F74 %29.83 in6.2 miNE (40°)3.5 mphMostly Cloudy
12:30 PM86.0 °F77.0 °F74 %29.80 in6.2 miNE (40°)5.8 mphMostly Cloudy
1:00 PM84.2 °F77.0 °F79 %29.80 in6.2 miENE (70°)3.5 mphMostly Cloudy
1:30 PM82.4 °F75.2 °F79 %29.77 in6.2 miNE (50°)6.9 mphRainLight Rain Showers
2:00 PM85.0 °F78.0 °F75 %29.77 in12.0 miNE (40°)3.5 mphRainLight Rain Showers
2:00 PM86.0 °F78.8 °F79 %29.77 in6.2 miNE (40°)3.5 mphMostly Cloudy
2:30 PM86.0 °F77.0 °F74 %29.74 in6.2 miNNE (20°)2.3 mphMostly Cloudy
3:00 PM87.8 °F77.0 °F70 %29.74 in6.2 miESE (110°)2.3 mphMostly Cloudy
3:30 PM87.8 °F77.0 °F70 %29.74 in6.2 miSW (230°)2.3 mphMostly Cloudy
4:00 PM87.8 °F77.0 °F70 %29.74 in6.2 miNNE (20°)4.6 mphMostly Cloudy
4:30 PM87.8 °F77.0 °F70 %29.71 in6.2 miWest (280°)4.6 mphMostly Cloudy
5:00 PM88.0 °F77.0 °F63 %29.74 in16.0 miWNW (300°)5.8 mphPartly Cloudy
5:00 PM87.8 °F77.0 °F70 %29.71 in6.2 miWNW (300°)5.8 mphMostly Cloudy
5:30 PM87.8 °F77.0 °F70 %29.74 in6.2 miNNW (340°)3.5 mphMostly Cloudy
6:00 PM86.0 °F77.0 °F74 %29.74 in6.2 miNNW (330°)6.9 mphMostly Cloudy
6:30 PM84.2 °F77.0 °F79 %29.74 in6.2 miNNW (340°)8.1 mphMostly Cloudy
7:00 PM82.4 °F77.0 °F84 %29.74 in6.2 miNNW (340°)6.9 mphMostly Cloudy
7:30 PM82.4 °F77.0 °F84 %29.77 in6.2 miNNW (340°)5.8 mphMostly Cloudy
8:00 PM82.0 °F77.0 °F81 %29.79 in9.0 miNW (320°)6.9 mphPartly Cloudy
8:00 PM82.4 °F77.0 °F84 %29.77 in6.2 miNW (320°)6.9 mphMostly Cloudy
8:30 PM82.4 °F77.0 °F84 %29.80 in6.2 miNNW (340°)5.8 mphMostly Cloudy
9:00 PM82.4 °F77.0 °F84 %29.80 in6.2 miNW (320°)4.6 mphMostly Cloudy
9:30 PM82.4 °F77.0 °F84 %29.80 in6.2 miNNW (330°)4.6 mphMostly Cloudy
10:00 PM80.6 °F77.0 °F89 %29.83 in6.2 miWNW (290°)3.5 mphMostly Cloudy
10:30 PM80.6 °F77.0 °F89 %29.83 in6.2 miWest (280°)2.3 mphMostly Cloudy
11:00 PM80.0 °F77.0 °F89 %29.85 in9.0 miWNW (300°)2.3 mphPartly Cloudy
11:00 PM80.6 °F77.0 °F89 %29.83 in6.2 miWNW (300°)2.3 mphMostly Cloudy
11:30 PM80.6 °F77.0 °F89 %29.83 in6.2 miWNW (290°)3.5 mphMostly Cloudy
Hourly data recorded from WBGG, located miles away from Kuching, Malaysia







STORIES FROM OUR PARTNERS